Weather History for Henderson, NV

Change the Weather History Date:

Tuesday, April 30, 2013

  Actual Average (KLAS) Record (KLAS)
Temperature  
Mean Temperature 82 °F 72 °F  
Max Temperature 92 °F 83 °F 99 °F (1981)
Min Temperature 72 °F 61 °F 38 °F (1967)
Degree Days  
Heating Degree Days 0 1  
Month to date heating degree days 64  
Since 1 July heating degree days 1943  
Cooling Degree Days 17 8  
Month to date cooling degree days 129  
Year to date cooling degree days 160  
Growing Degree Days 32 (Base 50)    
Moisture  
Dew Point 30 °F    
Average Humidity 15    
Maximum Humidity 21    
Minimum Humidity 10    
Precipitation  
Precipitation 0.00 in 0.00 in 0.35 in (1973)
Month to date precipitation 0.15  
Year to date precipitation 1.89  
Snow  
Snow 0.00 in 0.00 in 0.00 in ()
Month to date snowfall 0.0  
Since 1 July snowfall 0.3  
Snow Depth -    
Sea Level Pressure  
Sea Level Pressure 29.58 in    
Wind  
Wind Speed 17 mph (SSW)    
Max Wind Speed 24 mph    
Max Gust Speed 29 mph    
Visibility 10 miles    
Events      
T = Trace of Precipitation, MM = Missing Value Source: NWS Daily Summary

Daily Weather History Graph

Daily Weather History Graph

Search for Another Location

Airport:

Trip Planner

Search our weather history database for the weather conditions in past years. The results will help you decide how hot, cold, wet, or windy it might be!

Date:

Astronomy

Apr. 30, 2013 Rise Set
Actual Time 5:48 AM PDT 7:27 PM PDT
Civil Twilight 5:21 AM PDT 7:54 PM PDT
Nautical Twilight 4:48 AM PDT 8:27 PM PDT
Astronomical Twilight 4:13 AM PDT 9:02 PM PDT
Moon No Moon Rise 10:24 AM PDT (4/30)
Length of Visible Light 14h 33m
Length of Day
13h 38m
Waning Gibbous, 69% of the Moon is Illuminated
Apr 30
Waning Gibbous
May 2
Last Quarter
May 9
New
May 17
First Quarter
May 24
Full

Hourly Weather History & Observations

Time (PDT) Temp. Dew Point Humidity Pressure Visibility Wind Dir Wind Speed Gust Speed Precip Events Conditions
12:56 AM 81.0 °F 30.0 °F 16% 29.57 in 10.0 mi SW 20.7 mph - N/A   Clear
1:56 AM 77.0 °F 28.0 °F 17% 29.57 in 10.0 mi South 13.8 mph - N/A   Clear
2:56 AM 75.9 °F 25.2 °F 15% 29.58 in 10.0 mi South 9.2 mph - N/A   Clear
3:56 AM 74.8 °F 27.1 °F 17% 29.58 in 10.0 mi South 16.1 mph - N/A   Clear
4:56 AM 72.0 °F 27.1 °F 19% 29.58 in 10.0 mi SSW 15.0 mph - N/A   Clear
5:56 AM 72.9 °F 29.1 °F 20% 29.59 in 10.0 mi South 17.3 mph - N/A   Clear
6:56 AM 72.9 °F 31.1 °F 21% 29.60 in 10.0 mi South 17.3 mph 24.2 mph N/A   Clear
7:56 AM 77.9 °F 32.9 °F 19% 29.60 in 10.0 mi South 19.6 mph - N/A   Clear
8:56 AM 79.9 °F 36.0 °F 21% 29.60 in 10.0 mi South 24.2 mph 28.8 mph N/A   Clear
9:56 AM 83.8 °F 36.9 °F 19% 29.59 in 10.0 mi South 21.9 mph - N/A   Clear
10:56 AM 86.0 °F 34.9 °F 16% 29.60 in 10.0 mi SW 18.4 mph 24.2 mph N/A   Clear
11:56 AM 90.0 °F 32.9 °F 13% 29.58 in 10.0 mi SSW 23.0 mph 28.8 mph N/A   Clear
12:56 PM 90.9 °F 32.9 °F 13% 29.57 in 10.0 mi SSW 21.9 mph 25.3 mph N/A   Clear
1:56 PM 92.8 °F 32.9 °F 12% 29.57 in 10.0 mi SSW 19.6 mph - N/A   Clear
2:56 PM 91.9 °F 32.9 °F 12% 29.56 in 10.0 mi South 18.4 mph 27.6 mph N/A   Clear
3:56 PM 90.9 °F 30.0 °F 11% 29.55 in 10.0 mi SW 18.4 mph 26.5 mph N/A   Clear
4:56 PM 92.8 °F 27.1 °F 10% 29.54 in 10.0 mi SW 11.5 mph - N/A   Clear
5:56 PM 91.9 °F 27.1 °F 10% 29.54 in 10.0 mi West 13.8 mph - N/A   Clear
6:56 PM 90.9 °F 28.0 °F 11% 29.54 in 10.0 mi SW 17.3 mph - N/A   Clear
7:56 PM 88.0 °F 26.1 °F 11% 29.56 in 10.0 mi SSW 13.8 mph - N/A   Clear
8:56 PM 84.9 °F 27.1 °F 12% 29.58 in 10.0 mi SW 16.1 mph - N/A   Clear
10:56 PM 81.9 °F 31.1 °F 16% 29.64 in 10.0 mi SW 10.4 mph - N/A   Clear
11:56 PM 77.9 °F 31.1 °F 18% 29.68 in 10.0 mi SSW 8.1 mph - N/A   Clear